Home > Weather > Modesto > Past weeks

Flag for USA Past Weather in Modesto, California, USA — Yesterday and Last 2 Weeks

Now
102 °F

Sunny.


Feels Like: 98 °F
Forecast: 67 / 105 °F
Wind: 16 mph from Northwest

Location: Modesto City-County-Sham Field

Current Time: Jul 23, 2016 at 6:10:12 PM

Latest Report: Jul 23, 2016 at 4:53 PM


Visibility: 10 mi

Pressure: 29.80 "Hg

Humidity: 13%

Dew Point: 43 °F

Location of ModestoLocation

Past Weather in Modesto — Graph

°F

Modesto Temperature Yesterday

Maximum temperature yesterday: 97 °F (at 4:53 PM)
Minimum temperature yesterday: 63 °F (at 5:53 AM)
Average temperature yesterday: 80 °F

High & Low Weather Summary for the Past Weeks

 TemperatureHumidityPressure
High104 °F (Jul 14, 4:53 PM)73% (Jul 9, 5:53 AM)30.07 "Hg (Jul 9, 5:53 AM)
Low56 °F (Jul 10, 5:53 AM)11% (Jul 13, 5:53 PM)29.75 "Hg (Jul 16, 5:53 PM)
Average79 °F37%29.92 "Hg
* Reported Jul 8 4:53 PM — Jul 23 4:53 PM, Modesto, Weather by CustomWeather, © 2016

Note: Actual official high and low records may vary slightly from our data, if they occured in-between our weather recording intervals... More about our weather records

Advertising

Modesto Weather History for the Previous 24 Hours

Scroll right to see more
 ConditionsComfort  
Time TempWeatherWind HumidityBarometerVisibility
4:53 PM
Sat, Jul 23
102 °FSunny.16 mph13%29.80 "Hg10 mi
3:53 PM101 °FSunny.14 mph17%29.82 "Hg10 mi
2:53 PM100 °FSunny.16 mph15%29.85 "Hg10 mi
1:53 PM98 °FSunny.13 mph20%29.88 "Hg10 mi
12:53 PM95 °FSunny.12 mph22%29.89 "Hg10 mi
11:53 AM91 °FSunny.10 mph28%29.91 "Hg10 mi
10:53 AM89 °FSunny.10 mph27%29.92 "Hg10 mi
9:53 AM83 °FSunny.N/A33%29.93 "Hg10 mi
8:53 AM79 °FSunny.N/A36%29.94 "Hg10 mi
7:53 AM73 °FSunny.7 mph44%29.93 "Hg10 mi
6:53 AM66 °FClear.5 mph59%29.93 "Hg10 mi
5:53 AM65 °FClear.No wind61%29.92 "Hg10 mi
4:53 AM69 °FClear.3 mph47%29.91 "Hg10 mi
3:53 AM69 °FClear.3 mph44%29.91 "Hg10 mi
2:53 AM70 °FClear.3 mph42%29.92 "Hg10 mi
1:53 AM72 °FClear.3 mph41%29.93 "Hg10 mi
12:53 AM73 °FClear.5 mph40%29.93 "Hg10 mi
11:53 PM
Fri, Jul 22
77 °FClear.5 mph30%29.94 "Hg10 mi
10:53 PM80 °FClear.10 mph23%29.94 "Hg10 mi
9:53 PM83 °FClear.12 mph24%29.95 "Hg10 mi
8:53 PM85 °FSunny.9 mph26%29.94 "Hg10 mi
7:53 PM91 °FSunny.10 mph22%29.93 "Hg10 mi
6:53 PM94 °FSunny.14 mph17%29.94 "Hg10 mi
Weather by CustomWeather, © 2016

See weather overviewHow to use our weather pages